Weather in Chernushka

Russia / Perm Krai     56°30′57″N   56°04′34″E
temp.,
°C
wind,
m/s
gust,
m/s
humid.,
%
clouds,
%
prec.,
mm/h
press.,
hPa
HPBL,
m
25 february, thu
thu2523:00−25n499211 0.0 1030147
02:00−27n33940 0.0 103125
05:00−28n22940 0.0 103219
08:00−30wnw11940 0.0 103219
11:00−24sw23900 0.0 1032182
14:00−20ssw348824 0.0 1031358
17:00−20ssw359240 0.0 1030344
20:00−26s33980 0.0 102924
26 february, fri
fri2623:00−28sse33960 0.0 102925
02:00−28sse349513 0.0 102748
05:00−28sse369646 0.0 1027106
08:00−28sse369445 0.0 1025114
11:00−22sse599673 0.1 1024345
14:00−18s5893100 0.1 1022514
17:00−16sse5992100 0.1 1020609
20:00−18sse41096100 0.1 1018410
27 february, sat
sat2723:00−17sse51396100 0.1 1016511
02:00−17sse61394100 0.1 1012491
05:00−15se71591100 0.1 1008556
08:00−13se71295100 1.0 1003616
11:00−12se61094100 2.1 1001625
14:00−10ese71091100 0.8 999631
17:00−7ese61094100 1.2 999565
20:00−9e61094100 0.6 999310
28 february, sun
sun2823:00−9e5895100 0.9 999231
02:00−9ene5895100 0.9 998206
05:00−10ene579598 1.5 999171
08:00−10ene5895100 0.5 1000183
11:00−8ene589597 0.9 1001251
14:00−5ne579495 0.4 1002337
17:00−7ne699393 0.6 1004306
20:00−10ne6119388 0.2 1006278
1 march, mon
mon123:00−13ne6109289 0.3 1009283
02:00−15ne599490 0.1 1011276
05:00−16ne599388 0.2 1013303
08:00−18ne599486 0.1 1015287
11:00−16ne589385 0.2 1017325
14:00−14nne579186 0.0 1017404
17:00−13nne469093 0.1 1018404
20:00−19nne339525 0.0 101923